GW0416 Weather Reports


Display with metric or nautical units.
time (UTC)temp
F
wind
direction
speed
MPH
gust
MPH
rain 1hr
in
rain 24hr
in
rain mn
in
humidity
%
barometer
mb
20260507050034 56 80 12.0 14.0 0.00 0.00 0.00 32 1007.7
20260507044542 55 99 8.0 10.0 0.00 0.00 0.00 33 1007.8
20260507043037 56 98 6.0 11.0 0.00 0.00 0.00 32 1007.7
20260507041532 59 69 9.0 13.0 0.00 0.00 0.00 29 1007.7
20260507040030 59 118 8.0 16.0 0.00 0.00 0.00 29 1007.6
20260507034532 60 118 8.0 13.0 0.00 0.00 0.00 28 1007.8
20260507033030 61 0 2.0 17.0 0.00 0.00 0.00 28 1008.0
20260507031530 58 178 4.0 8.0 0.00 0.00 0.00 30 1007.6
20260507030037 59 126 7.0 10.0 0.00 0.00 0.00 30 1007.3
20260507024534 60 123 8.0 9.0 0.00 0.00 0.00 29 1007.2
20260507023033 62 107 6.0 7.0 0.00 0.00 0.00 27 1007.1
20260507021529 63 87 4.0 11.0 0.00 0.00 0.00 26 1007.1
20260507020033 66 355 3.0 5.0 0.00 0.00 0.00 24 1007.0
20260507014535 67 327 2.0 6.0 0.00 0.00 0.00 24 1007.2
20260507013035 67 316 2.0 5.0 0.00 0.00 0.00 24 1007.1
20260507011533 67 345 7.0 15.0 0.00 0.00 0.00 23 1007.2
20260507010032 69 346 9.0 19.0 0.00 0.00 0.00 23 1007.2
20260507004532 70 343 11.0 19.0 0.00 0.00 0.00 22 1007.4
20260507003028 70 28 16.0 23.0 0.00 0.00 0.00 22 1007.5
20260507001534 70 350 10.0 18.0 0.00 0.00 0.00 23 1007.4
20260507000033 69 355 9.0 16.0 0.00 0.00 0.00 24 1007.4
20260506234533 68 22 9.0 18.0 0.00 0.00 0.00 24 1007.3
20260506233032 69 328 6.0 14.0 0.00 0.00 0.00 23 1007.4
20260506231533 68 344 7.0 13.0 0.00 0.00 0.00 24 1007.6
20260506230028 68 270 6.0 13.0 0.00 0.00 0.00 24 1007.8
20260506224534 67 311 6.0 15.0 0.00 0.00 0.00 23 1008.0
20260506223036 66 275 8.0 14.0 0.00 0.00 0.00 23 1008.4
20260506221533 66 273 6.0 12.0 0.00 0.00 0.00 23 1008.8
20260506220036 65 300 9.0 18.0 0.00 0.00 0.00 23 1009.0
20260506214531 65 277 12.0 17.0 0.00 0.00 0.00 23 1009.4
20260506213030 64 243 11.0 17.0 0.00 0.00 0.00 24 1009.4
20260506211532 63 324 10.0 19.0 0.00 0.00 0.00 24 1009.7
20260506210032 63 294 9.0 15.0 0.00 0.00 0.00 25 1010.0
20260506204532 62 312 10.0 18.0 0.00 0.00 0.00 25 1010.2
20260506203030 61 249 9.0 17.0 0.00 0.00 0.00 26 1010.5
20260506201541 60 234 5.0 13.0 0.00 0.00 0.00 25 1010.7
20260506200032 59 292 8.0 16.0 0.00 0.00 0.00 25 1010.9
20260506194534 58 292 6.0 21.0 0.00 0.00 0.00 27 1011.1
20260506193030 57 254 11.0 22.0 0.00 0.00 0.00 26 1011.4
20260506191532 57 232 8.0 13.0 0.00 0.00 0.00 25 1011.6
20260506190029 56 204 10.0 23.0 0.00 0.00 0.00 27 1012.0
20260506184536 55 178 11.0 23.0 0.00 0.00 0.00 25 1012.3
20260506183031 54 221 8.0 17.0 0.00 0.00 0.00 26 1012.6
20260506181530 53 196 8.0 17.0 0.00 0.00 0.00 26 1012.7
20260506180032 52 165 10.0 20.0 0.00 0.00 0.00 28 1013.1
20260506174532 51 203 10.0 16.0 0.00 0.00 0.00 27 1013.4
20260506173035 50 207 10.0 18.0 0.00 0.00 0.00 28 1013.6
20260506171539 49 211 8.0 17.0 0.00 0.00 0.00 31 1014.0
20260506170029 49 196 10.0 18.0 0.00 0.00 0.00 33 1014.4
20260506164532 48 169 10.0 19.0 0.00 0.00 0.00 36 1014.4
20260506163039 47 211 12.0 18.0 0.00 0.00 0.00 38 1014.6
20260506161538 46 184 11.0 16.0 0.00 0.00 0.00 42 1014.9
20260506160034 44 244 10.0 17.0 0.00 0.00 0.00 47 1015.0
20260506154537 43 232 12.0 18.0 0.00 0.00 0.00 49 1015.3
20260506153028 42 215 12.0 18.0 0.00 0.00 0.00 51 1015.4
20260506151530 41 219 12.0 17.0 0.00 0.00 0.00 53 1015.7
20260506150032 41 215 10.0 16.0 0.00 0.00 0.00 54 1015.7
20260506144531 40 220 10.0 16.0 0.00 0.00 0.00 55 1015.9
20260506143029 39 254 11.0 16.0 0.00 0.00 0.00 55 1016.1
20260506141526 38 212 10.0 14.0 0.00 0.00 0.00 54 1016.3
20260506140034 38 213 7.0 11.0 0.00 0.00 0.00 53 1016.3
20260506134532 36 184 5.0 8.0 0.00 0.00 0.00 53 1016.3
20260506133031 34 213 4.0 7.0 0.00 0.00 0.00 56 1016.3
20260506131533 33 234 4.0 7.0 0.00 0.00 0.00 56 1016.3
20260506130032 31 262 1.0 4.0 0.00 0.00 0.00 56 1016.4
20260506124528 30 252 2.0 4.0 0.00 0.00 0.00 56 1016.6
20260506123030 30 267 2.0 3.0 0.00 0.00 0.00 56 1016.6
20260506121530 29 268 2.0 4.0 0.00 0.00 0.00 57 1016.7
20260506120034 29 268 2.0 4.0 0.00 0.00 0.00 56 1016.8
20260506114529 30 267 3.0 6.0 0.00 0.00 0.00 55 1017.0
20260506113030 30 268 3.0 6.0 0.00 0.00 0.00 56 1017.1
20260506111530 30 268 5.0 7.0 0.00 0.00 0.00 55 1017.3
20260506110033 30 265 4.0 6.0 0.00 0.00 0.00 55 1017.5
20260506104530 29 265 3.0 6.0 0.00 0.00 0.00 56 1017.4
20260506103033 29 263 3.0 4.0 0.00 0.00 0.00 56 1017.6
20260506101530 29 261 2.0 7.0 0.00 0.00 0.00 55 1017.7
20260506100028 29 263 4.0 7.0 0.00 0.00 0.00 55 1017.8
20260506094530 29 257 2.0 5.0 0.00 0.00 0.00 54 1018.0
20260506093052 29 237 4.0 7.0 0.00 0.00 0.00 53 1018.0
20260506091533 28 259 3.0 7.0 0.00 0.00 0.00 54 1018.2
20260506090029 30 227 3.0 5.0 0.00 0.00 0.00 52 1018.2
20260506084529 31 229 2.0 5.0 0.00 0.00 0.00 52 1018.4
20260506083034 30 336 1.0 2.0 0.00 0.00 0.00 54 1018.5
20260506081532 28 336 1.0 3.0 0.00 0.00 0.00 55 1018.5
20260506073030 29 0 0.0 3.0 0.00 0.00 0.00 55 1018.8
20260506071534 28 0 0.0 4.0 0.00 0.00 0.00 54 1018.8
20260506061540 30 326 2.0 7.0 0.00 0.00 0.00 54 1019.2